Regional Weather Roundup
Issued by NWS Green Bay, WI

Home | Current Version | Previous Version | Graphics & Text | Print | Product List | Glossary Off
Versions: 1 2 3 4 5 6 7 8 9 10 11 12 13 14 15 16 17 18 19 20 21 22 23 24 25 26 27 28 29 30 31 32 33 34 35 36 37 38 39 40 41 42 43 44 45 46 47 48 49 50

000
ASUS43 KGRB 241311
RWRGRB

NORTH-CENTRAL AND NORTHEAST WISCONSIN REGIONAL WEATHER ROUNDUP
NATIONAL WEATHER SERVICE GREEN BAY WI
700 AM CST FRI FEB 24 2017

WIZ005-009-010>012-018-019-241400-
NORTH CENTRAL WISCONSIN

CITY           SKY/WX    TMP DP  RH WIND       PRES   REMARKS
IRONWOOD       FLURRIES  21  17  84 NE15      29.88F WCI   8
MANITOWISH WTR LGT SNOW  21  21 100 NE9       29.81F VSB 1
ARBOR VITAE    SNOW      23  21  91 NE7G16      N/A  VSB 1/2
EAGLE RIVER    LGT SNOW  22  21  94 NE16G25   29.79S VSB 3/4 WCI   8
LAND O LAKES   CLOUDY    22  20  93 N15       29.83F WCI   8
RHINELANDER    HVY SNOW  24  23  96 NE14G23   29.76F VSB 1/4
PHILLIPS       LGT SNOW  24  23  96 N13G20    29.77F VSB 3/4
ANTIGO         LGT SNOW  25  25  98 NE13      29.75S VSB 1
TOMAHAWK       SNOW      24  23  93 N13G23    29.76F VSB 1/2
MERRILL        NOT AVBL
$$

WIZ013-073-241400-
NORTHEAST WISCONSIN

CITY           SKY/WX    TMP DP  RH WIND       PRES   REMARKS
IRON MOUNTAIN  LGT SNOW  26  20  77 N13G22    29.83R
MARINETTE      LGT SNOW  28  27  93 NE10      29.85R VSB 1
OCONTO         CLOUDY    29  26  88 NE16G23   29.77R
$$

WIZ017-030-035>037-045-241400-
CENTRAL WISCONSIN

CITY           SKY/WX    TMP DP  RH WIND       PRES   REMARKS
MEDFORD        LGT SNOW  26  23  91 NE13      29.71F
WAUSAU         LGT SNOW  27  25  92 NE6       29.72F VSB 1
MOSINEE        SNOW      27  27 100 NE12G17   29.73F VSB 1/2
MARSHFIELD     FOG       27  24  89 NE12      29.69F VSB 1
WISC RAPIDS    LGT SNOW  28  27  96 NE9       29.70F VSB 1
STEVENS POINT  MIX PCPN  26  26 100 NE12      29.71F
WAUPACA        LGT SNOW  30  28  90 N12G17    29.70F
SHAWANO        LGT SNOW  30  28  90 NE13G18   29.76F VSB 1
CLINTONVILLE   LGT SNOW  28  28 100 NE13G21   29.74R
WAUTOMA        LGT SNOW  28  26  92 NE17G25   29.67F VSB 1
$$

WIZ038-039-048-051-241400-
FOX VALLEY

CITY           SKY/WX    TMP DP  RH WIND       PRES   REMARKS
NWS GREEN BAY  SNOW      30  30 100 NE23G35   29.70F VSB 1/2
APPLETON       LGT SNOW  28  27  93 NE18G28   29.66F
OSHKOSH        LGT SNOW  30  27  88 NE20G29   29.65R FOG
FOND DU LAC    LGT SNOW  32  27  81 NE21G30   29.64R
$$

WIZ022-050-052-241400-
EAST CENTRAL WISCONSIN

CITY           SKY/WX    TMP DP  RH WIND       PRES   REMARKS
EPHRAIM        LGT SNOW  29  28  99 NE15G25   29.72S
WASHINGTON ISL LGT SNOW  28  26  93 NE15G23   29.75F VSB 3/4
STURGEON BAY   LGT SNOW  30  28  92 NE16G30   29.71R FOG
MANITOWOC      LGT SNOW  32  28  85 NE15G24   29.69R FOG
SHEBOYGAN      FRZ RAIN  32  30  92 NE30G37   29.63R FOG
$$

LMZ563-521-522-541>543-241400-
LAKESHORE

STATION/POSITION TIME  TEMP    WIND        PRES    VSBY  WAVE
                       AIR SEA DIR/SP/G                  HT/PER
                 (UTC) (F)     (DEG/KT/KT) (MB)    (MI)  (FT/S)
SHEBOYGAN LKSHOR 1300   33      30/ 29/ 33 1003.8R
KEWAUNEE LKSHORE 1248   33      60/ 25/ 32 1004.9R
NORTHPORT PIER   1240   30      30/ 18/ 24 1007.8F
SISTER BAY LKSHO 1205   30     100/  9/ 16   N/A
CHAMBERS ISLAND  1240   29      20/ 26/ 31 1006.4F
MENOMINEE LKSHOR 1248   29      10/ 30/ 36 1006.6R
$$




USA.gov is the U.S. government's official web portal to all federal, state and local government web resources and services.